Home   Weather   Klaksvík   Past weeks

Flag for Faroe Islands Past Weather in Klaksvík, Faroe Islands, Faroe Islands — Yesterday and Last 2 Weeks

49 °F


Feels Like: 44 °F
Forecast: 47 / 51 °F
Wind: 13 mph from Southwest

Location: Thorshavn

Current Time: Oct 25, 2016 at 2:35:17 AM

Latest Report: Oct 25, 2016 at 1:00 AM

Visibility: 25 mi

Pressure: 29.99 "Hg

Humidity: 82%

Dew Point: 44 °F

Location of KlaksvíkLocation

Past Weather in Klaksvík — Graph


Klaksvík Temperature Yesterday

Maximum temperature yesterday: 50 °F (at 2:00 PM)
Minimum temperature yesterday: 43 °F (at 1:00 AM)
Average temperature yesterday: 47 °F

High & Low Weather Summary for the Past Weeks

High55 °F (Oct 10, 3:00 PM)100% (Oct 16, 8:00 AM)30.51 "Hg (Oct 16, 8:00 AM)
Low42 °F (Oct 23, 11:00 PM)68% (Oct 12, 1:00 PM)29.50 "Hg (Oct 17, 8:00 PM)
Average50 °F89%30.14 "Hg
* Reported Oct 10 1:00 AM — Oct 25 1:00 AM, Klaksvík, Weather by CustomWeather, © 2016

Note: Actual official high and low records may vary slightly from our data, if they occured in-between our weather recording intervals... More about our weather records


Klaksvík Weather History for the Previous 24 Hours

Scroll right to see more
Time TempWeatherWind HumidityBarometerVisibility
1:00 AM
Tue, Oct 25
49 °FFog.13 mph82%29.99 "Hg25 mi
12:00 AM48 °FPassing clouds.13 mph78%30.00 "Hg31 mi
11:00 PM
Mon, Oct 24
47 °FPassing clouds.7 mph80%30.01 "Hg31 mi
10:00 PM47 °FPassing clouds.6 mph83%30.03 "Hg31 mi
9:00 PM47 °FPassing clouds.3 mph83%30.04 "Hg31 mi
8:00 PM47 °FOvercast.6 mph79%30.04 "Hg31 mi
7:00 PM47 °FOvercast.3 mph80%30.05 "Hg31 mi
6:00 PM47 °FOvercast.5 mph79%30.06 "Hg31 mi
5:00 PM48 °FPartly sunny.3 mph80%30.06 "Hg22 mi
4:00 PM49 °FOvercast.7 mph77%30.06 "Hg31 mi
3:00 PM49 °FOvercast.7 mph76%30.07 "Hg31 mi
2:00 PM50 °FOvercast.7 mph76%30.07 "Hg25 mi
1:00 PM49 °FOvercast.7 mph80%30.09 "Hg31 mi
12:00 PM48 °FScattered clouds.6 mph83%30.09 "Hg31 mi
11:00 AM47 °FOvercast.3 mph85%30.10 "Hg28 mi
10:00 AM47 °FOvercast.6 mph75%30.11 "Hg31 mi
9:00 AM44 °FRain. Overcast.8 mph89%30.12 "Hg5 mi
8:00 AM46 °FOvercast.3 mph87%30.11 "Hg31 mi
7:00 AM47 °FOvercast.5 mph88%30.11 "Hg31 mi
6:00 AM45 °FOvercast.1 mph93%30.12 "Hg28 mi
5:00 AM44 °FOvercast.2 mph93%30.13 "Hg28 mi
4:00 AM44 °FOvercast.2 mph95%30.14 "Hg15 mi
2:00 AM45 °FOvercast.2 mph95%30.16 "Hg25 mi
Weather by CustomWeather, © 2016

See weather overviewHow to use our weather pages